Location: Newark
(53.3333°N, 83.7500°E)
Time: 12:38:55
(UTC+00:00)

Vanguard 2 - Pass Details

Date: 20 November 2019
Orbit: 553 x 2938 km, 32.9° (Epoch: 14 December)

Event Time Altitude Azimuth Distance (km) Brightness Sun altitude
Rises 04:46:04 0° 239° (WSW) 4,568 11.6 14.8°
Reaches altitude 10° 04:52:10 10° 209° (SSW) 2,948 11.2 15.1°
Maximum altitude 04:54:07 11° 193° (SSW) 2,657 11.5 15.2°
Drops below altitude 10° 04:55:53 10° 176° (S) 2,575 12.2 15.3°
Sets 05:00:03 0° 141° (SE) 3,128 12.0 15.5°
